CMP158 SEQM-MPTO

Flight info

Callsign CMP158
Flight time 1h 24m
Altitude 36000
Route NEGAL3A NEGAL DCT ENSOL UM674 TOKUT DCT MILAT DCT SIRIL SIRIL3B
Aircraft B738/M-SDE2E3FGHIRWXY/LB1

Departure

Time 2026-05-07 02:32
Airport Mariscal Sucre International Airport (SEQM)

Arrival

Time 2026-05-07 03:56
Airport Tocumen International Airport (MPTO)
Time Latitude Longitude Altitude Speed Heading
2026-05-07 02:13 -0.12257 -78.35931 7822 ft 0 kts 268°
2026-05-07 02:20 -0.12257 -78.35925 7840 ft 4 kts 269°
2026-05-07 02:20 -0.12254 -78.35903 7837 ft 2 kts 252°
2026-05-07 02:20 -0.12243 -78.35881 7834 ft 4 kts 227°
2026-05-07 02:20 -0.12235 -78.35873 7836 ft 0 kts 226°
2026-05-07 02:24 -0.12236 -78.35873 7840 ft 0 kts 217°
2026-05-07 02:24 -0.12254 -78.35869 7836 ft 6 kts 162°
2026-05-07 02:24 -0.12307 -78.35852 7836 ft 8 kts 162°
2026-05-07 02:24 -0.12356 -78.35823 7836 ft 8 kts 124°
2026-05-07 02:25 -0.12362 -78.35768 7838 ft 8 kts 89°
2026-05-07 02:25 -0.12362 -78.35762 7834 ft 0 kts 88°
2026-05-07 02:25 -0.12361 -78.35742 7840 ft 6 kts 87°
2026-05-07 02:26 -0.12359 -78.35697 7833 ft 7 kts 88°
2026-05-07 02:26 -0.12359 -78.35649 7838 ft 8 kts 96°
2026-05-07 02:26 -0.12409 -78.35612 7838 ft 11 kts 181°
2026-05-07 02:26 -0.12519 -78.35609 7833 ft 19 kts 177°
2026-05-07 02:27 -0.12647 -78.35604 7841 ft 18 kts 177°
2026-05-07 02:27 -0.12770 -78.35599 7844 ft 17 kts 177°
2026-05-07 02:27 -0.12889 -78.35594 7847 ft 17 kts 178°
2026-05-07 02:27 -0.13004 -78.35590 7850 ft 16 kts 178°
2026-05-07 02:28 -0.13127 -78.35585 7858 ft 18 kts 178°
2026-05-07 02:28 -0.13253 -78.35580 7865 ft 18 kts 177°
2026-05-07 02:28 -0.13373 -78.35574 7869 ft 17 kts 179°
2026-05-07 02:28 -0.13493 -78.35569 7877 ft 18 kts 178°
2026-05-07 02:29 -0.13628 -78.35563 7886 ft 21 kts 178°
2026-05-07 02:29 -0.13772 -78.35558 7893 ft 20 kts 178°
2026-05-07 02:29 -0.13912 -78.35552 7896 ft 20 kts 177°
2026-05-07 02:29 -0.14046 -78.35545 7910 ft 19 kts 177°
2026-05-07 02:30 -0.14172 -78.35540 7916 ft 16 kts 178°
2026-05-07 02:30 -0.14243 -78.35506 7915 ft 0 kts 123°
2026-05-07 02:30 -0.14244 -78.35505 7915 ft 3 kts 121°
2026-05-07 02:30 -0.14254 -78.35472 7913 ft 7 kts 96°
2026-05-07 02:31 -0.14246 -78.35393 7920 ft 14 kts 60°
2026-05-07 02:31 -0.14131 -78.35373 7908 ft 33 kts 358°
2026-05-07 02:31 -0.13652 -78.35393 7893 ft 103 kts 357°
2026-05-07 02:31 -0.12727 -78.35430 7858 ft 162 kts 358°
2026-05-07 02:32 -0.11460 -78.35482 8132 ft 189 kts 358°
2026-05-07 02:32 -0.10128 -78.35542 8867 ft 200 kts 359°
2026-05-07 02:32 -0.08704 -78.35639 9478 ft 210 kts 348°
2026-05-07 02:32 -0.07270 -78.36107 9838 ft 228 kts 342°
2026-05-07 02:33 -0.05695 -78.36667 10038 ft 251 kts 341°
2026-05-07 02:33 -0.03975 -78.37269 10276 ft 270 kts 342°
2026-05-07 02:33 -0.02149 -78.37899 10551 ft 289 kts 342°
2026-05-07 02:33 -0.00153 -78.38578 10697 ft 315 kts 342°
2026-05-07 02:34 0.02000 -78.39304 10884 ft 338 kts 342°
2026-05-07 02:34 0.04285 -78.40070 11231 ft 351 kts 342°
2026-05-07 02:34 0.06617 -78.40849 11887 ft 355 kts 342°
2026-05-07 02:34 0.08974 -78.41634 12557 ft 359 kts 342°
2026-05-07 02:35 0.11356 -78.42426 13238 ft 362 kts 343°
2026-05-07 02:35 0.13764 -78.43226 13854 ft 368 kts 343°
2026-05-07 02:35 0.16202 -78.44072 14452 ft 372 kts 340°
2026-05-07 02:35 0.18617 -78.45037 15085 ft 375 kts 339°
2026-05-07 02:36 0.21037 -78.46055 15685 ft 379 kts 339°
2026-05-07 02:36 0.23444 -78.47076 16261 ft 382 kts 339°
2026-05-07 02:36 0.25940 -78.47983 16832 ft 382 kts 347°
2026-05-07 02:36 0.28549 -78.48546 17419 ft 384 kts 351°
2026-05-07 02:37 0.31188 -78.49040 17932 ft 388 kts 352°
2026-05-07 02:37 0.33852 -78.49522 18516 ft 391 kts 352°
2026-05-07 02:37 0.36533 -78.50010 19004 ft 393 kts 352°
2026-05-07 02:37 0.39232 -78.50511 19464 ft 396 kts 351°
2026-05-07 02:38 0.41955 -78.51027 19907 ft 400 kts 351°
2026-05-07 02:38 0.44690 -78.51552 20380 ft 402 kts 351°
2026-05-07 02:38 0.47444 -78.52086 20830 ft 405 kts 351°
2026-05-07 02:38 0.50218 -78.52625 21285 ft 408 kts 351°
2026-05-07 02:39 0.53014 -78.53170 21722 ft 410 kts 351°
2026-05-07 02:39 0.55830 -78.53720 22133 ft 413 kts 351°
2026-05-07 02:39 0.58663 -78.54273 22528 ft 416 kts 351°
2026-05-07 02:39 0.61478 -78.54822 22963 ft 418 kts 351°
2026-05-07 02:40 0.64346 -78.55382 23375 ft 421 kts 351°
2026-05-07 02:40 0.67236 -78.55946 23764 ft 424 kts 351°
2026-05-07 02:40 0.70124 -78.56640 24085 ft 429 kts 345°
2026-05-07 02:40 0.72953 -78.57624 24417 ft 432 kts 341°
2026-05-07 02:41 0.75772 -78.58713 24759 ft 434 kts 340°
2026-05-07 02:41 0.78585 -78.59827 25098 ft 436 kts 340°
2026-05-07 02:41 0.81411 -78.60951 25404 ft 439 kts 340°
2026-05-07 02:41 0.84255 -78.62086 25713 ft 441 kts 340°
2026-05-07 02:42 0.87105 -78.63225 26035 ft 443 kts 340°
2026-05-07 02:42 0.89995 -78.64316 26340 ft 444 kts 346°
2026-05-07 02:42 0.92839 -78.64869 26609 ft 443 kts 355°
2026-05-07 02:42 0.95917 -78.65167 26931 ft 444 kts 357°
2026-05-07 02:43 0.99003 -78.65407 27219 ft 446 kts 358°
2026-05-07 02:43 1.02111 -78.65654 27496 ft 449 kts 357°
2026-05-07 02:43 1.05230 -78.65927 27780 ft 451 kts 356°
2026-05-07 02:43 1.08364 -78.66228 28054 ft 453 kts 356°
2026-05-07 02:44 1.11516 -78.66548 28324 ft 456 kts 356°
2026-05-07 02:44 1.14643 -78.66873 28580 ft 458 kts 356°
2026-05-07 02:44 1.17824 -78.67207 28834 ft 460 kts 355°
2026-05-07 02:44 1.21019 -78.67542 29084 ft 462 kts 355°
2026-05-07 02:45 1.24225 -78.67877 29333 ft 464 kts 355°
2026-05-07 02:45 1.27445 -78.68212 29566 ft 466 kts 355°
2026-05-07 02:45 1.30677 -78.68548 29805 ft 468 kts 355°
2026-05-07 02:45 1.33923 -78.68888 30039 ft 470 kts 355°
2026-05-07 02:46 1.37181 -78.69266 30238 ft 472 kts 354°
2026-05-07 02:46 1.40453 -78.69675 30434 ft 474 kts 354°
2026-05-07 02:46 1.43732 -78.70093 30704 ft 473 kts 354°
2026-05-07 02:46 1.46996 -78.70510 31019 ft 471 kts 354°
2026-05-07 02:47 1.50244 -78.70921 31341 ft 469 kts 354°
2026-05-07 02:47 1.53446 -78.71322 31624 ft 469 kts 354°
2026-05-07 02:47 1.56680 -78.71724 31899 ft 468 kts 354°
2026-05-07 02:47 1.59916 -78.72125 32196 ft 468 kts 354°
2026-05-07 02:48 1.63142 -78.72524 32512 ft 466 kts 354°
2026-05-07 02:48 1.66355 -78.72922 32819 ft 465 kts 354°
2026-05-07 02:48 1.69570 -78.73320 33115 ft 465 kts 354°
2026-05-07 02:48 1.72774 -78.73718 33431 ft 463 kts 354°
2026-05-07 02:49 1.74891 -78.73980 33656 ft 463 kts 354°
2026-05-07 02:49 1.78080 -78.74376 33979 ft 462 kts 354°
2026-05-07 02:49 1.81268 -78.74771 34234 ft 461 kts 354°
2026-05-07 02:49 1.84449 -78.75155 34497 ft 460 kts 354°
2026-05-07 02:50 1.87632 -78.75524 34774 ft 459 kts 354°
2026-05-07 02:50 1.90803 -78.75886 35053 ft 458 kts 354°
2026-05-07 02:50 1.93967 -78.76245 35314 ft 457 kts 354°
2026-05-07 02:50 1.97135 -78.76605 35565 ft 457 kts 354°
2026-05-07 02:51 2.00287 -78.76965 35830 ft 456 kts 354°
2026-05-07 02:51 2.03446 -78.77327 35989 ft 458 kts 354°
2026-05-07 02:51 2.09800 -78.78058 35978 ft 458 kts 354°
2026-05-07 02:52 2.16102 -78.78785 35981 ft 454 kts 354°
2026-05-07 02:52 2.22315 -78.79501 35981 ft 451 kts 354°
2026-05-07 02:53 2.28587 -78.80224 35987 ft 450 kts 354°
2026-05-07 02:53 2.34769 -78.80936 35984 ft 450 kts 354°
2026-05-07 02:54 2.40993 -78.81653 35987 ft 451 kts 354°
2026-05-07 02:54 2.47234 -78.82372 35988 ft 453 kts 354°
2026-05-07 02:55 2.53511 -78.83096 35987 ft 455 kts 354°
2026-05-07 02:55 2.59820 -78.83823 35985 ft 457 kts 354°
2026-05-07 02:56 2.66162 -78.84554 35983 ft 459 kts 354°
2026-05-07 02:56 2.72514 -78.85287 35978 ft 460 kts 354°
2026-05-07 02:57 2.78889 -78.86022 35981 ft 461 kts 354°
2026-05-07 02:57 2.85267 -78.86758 35978 ft 461 kts 354°
2026-05-07 02:58 2.91599 -78.87489 35977 ft 460 kts 354°
2026-05-07 02:58 2.97965 -78.88223 35979 ft 459 kts 354°
2026-05-07 02:59 3.04309 -78.88955 35978 ft 458 kts 354°
2026-05-07 02:59 3.10634 -78.89685 35979 ft 457 kts 354°
2026-05-07 03:00 3.16943 -78.90413 35980 ft 456 kts 354°
2026-05-07 03:00 3.23239 -78.91139 35979 ft 455 kts 354°
2026-05-07 03:01 3.29480 -78.91860 35980 ft 454 kts 354°
2026-05-07 03:01 3.35744 -78.92583 35980 ft 453 kts 354°
2026-05-07 03:02 3.42001 -78.93305 35977 ft 452 kts 355°
2026-05-07 03:02 3.48244 -78.94026 35983 ft 451 kts 355°
2026-05-07 03:03 3.54482 -78.94747 35987 ft 451 kts 355°
2026-05-07 03:03 3.60727 -78.95468 35982 ft 451 kts 355°
2026-05-07 03:04 3.66965 -78.96188 35982 ft 451 kts 355°
2026-05-07 03:04 3.73196 -78.96908 35978 ft 451 kts 355°
2026-05-07 03:05 3.79438 -78.97630 35975 ft 451 kts 355°
2026-05-07 03:05 3.85669 -78.98350 35979 ft 451 kts 355°
2026-05-07 03:06 3.91905 -78.99070 35981 ft 451 kts 355°
2026-05-07 03:06 3.98121 -78.99789 35979 ft 451 kts 355°
2026-05-07 03:07 4.04368 -79.00511 35977 ft 452 kts 355°
2026-05-07 03:07 4.10620 -79.01234 35976 ft 452 kts 355°
2026-05-07 03:08 4.16883 -79.01959 35979 ft 453 kts 355°
2026-05-07 03:08 4.23142 -79.02683 35978 ft 453 kts 355°
2026-05-07 03:09 4.29373 -79.03404 35978 ft 454 kts 355°
2026-05-07 03:09 4.35656 -79.04131 35978 ft 454 kts 355°
2026-05-07 03:10 4.41955 -79.04860 35979 ft 454 kts 355°
2026-05-07 03:10 4.48199 -79.05582 35976 ft 455 kts 355°
2026-05-07 03:11 4.54491 -79.06311 35977 ft 455 kts 355°
2026-05-07 03:11 4.60783 -79.07040 35975 ft 455 kts 355°
2026-05-07 03:12 4.67073 -79.07768 35977 ft 455 kts 355°
2026-05-07 03:12 4.73371 -79.08498 35977 ft 455 kts 355°
2026-05-07 03:13 4.79631 -79.09223 35975 ft 455 kts 355°
2026-05-07 03:13 4.85928 -79.09953 35974 ft 455 kts 355°
2026-05-07 03:14 4.92220 -79.10682 35980 ft 455 kts 355°
2026-05-07 03:15 5.01665 -79.11777 35976 ft 455 kts 355°
2026-05-07 03:15 5.07961 -79.12507 35976 ft 455 kts 355°
2026-05-07 03:16 5.14219 -79.13233 35973 ft 455 kts 355°
2026-05-07 03:16 5.20516 -79.13963 35971 ft 455 kts 355°
2026-05-07 03:17 5.26811 -79.14694 35972 ft 455 kts 355°
2026-05-07 03:17 5.33120 -79.15426 35971 ft 455 kts 354°
2026-05-07 03:18 5.39358 -79.16150 35969 ft 454 kts 354°
2026-05-07 03:18 5.45635 -79.16879 35969 ft 454 kts 354°
2026-05-07 03:19 5.51914 -79.17608 35970 ft 453 kts 354°
2026-05-07 03:19 5.58187 -79.18336 35968 ft 453 kts 354°
2026-05-07 03:20 5.64456 -79.19065 35965 ft 453 kts 354°
2026-05-07 03:20 5.70713 -79.19792 35967 ft 452 kts 354°
2026-05-07 03:21 5.76917 -79.20513 35968 ft 452 kts 354°
2026-05-07 03:21 5.83164 -79.21239 35965 ft 451 kts 354°
2026-05-07 03:22 5.89407 -79.21965 35966 ft 451 kts 354°
2026-05-07 03:22 5.95633 -79.22690 35966 ft 451 kts 354°
2026-05-07 03:23 6.01863 -79.23425 35964 ft 450 kts 354°
2026-05-07 03:23 6.08086 -79.24161 35969 ft 450 kts 354°
2026-05-07 03:24 6.14309 -79.24897 35967 ft 450 kts 354°
2026-05-07 03:24 6.20542 -79.25634 35967 ft 450 kts 354°
2026-05-07 03:25 6.26771 -79.26370 35967 ft 450 kts 354°
2026-05-07 03:25 6.32959 -79.27102 35965 ft 450 kts 354°
2026-05-07 03:26 6.39186 -79.27838 35963 ft 450 kts 354°
2026-05-07 03:26 6.45415 -79.28575 35964 ft 450 kts 354°
2026-05-07 03:27 6.51639 -79.29311 35967 ft 450 kts 354°
2026-05-07 03:27 6.57868 -79.30049 35965 ft 450 kts 354°
2026-05-07 03:28 6.64056 -79.30781 35965 ft 450 kts 354°
2026-05-07 03:28 6.70282 -79.31518 35962 ft 450 kts 354°
2026-05-07 03:29 6.76519 -79.32257 35710 ft 455 kts 354°
2026-05-07 03:29 6.79670 -79.32630 35317 ft 453 kts 354°
2026-05-07 03:29 6.82786 -79.32999 34862 ft 449 kts 354°
2026-05-07 03:29 6.85878 -79.33366 34422 ft 446 kts 354°
2026-05-07 03:30 6.88955 -79.33731 33971 ft 444 kts 354°
2026-05-07 03:30 6.92017 -79.34094 33488 ft 441 kts 354°
2026-05-07 03:30 6.95054 -79.34454 33038 ft 438 kts 354°
2026-05-07 03:30 6.98072 -79.34812 32597 ft 435 kts 354°
2026-05-07 03:31 7.01062 -79.35167 32172 ft 431 kts 354°
2026-05-07 03:31 7.04034 -79.35519 31748 ft 428 kts 354°
2026-05-07 03:31 7.06981 -79.35869 31333 ft 426 kts 354°
2026-05-07 03:31 7.09915 -79.36216 30904 ft 423 kts 354°
2026-05-07 03:32 7.12838 -79.36563 30486 ft 421 kts 354°
2026-05-07 03:32 7.15737 -79.36907 30061 ft 419 kts 354°
2026-05-07 03:32 7.18627 -79.37250 29589 ft 417 kts 354°
2026-05-07 03:32 7.21460 -79.37586 29148 ft 413 kts 354°
2026-05-07 03:33 7.24304 -79.37924 28698 ft 410 kts 355°
2026-05-07 03:33 7.27128 -79.38259 28274 ft 406 kts 355°
2026-05-07 03:33 7.29930 -79.38599 27848 ft 403 kts 353°
2026-05-07 03:33 7.32681 -79.39085 27434 ft 400 kts 350°
2026-05-07 03:34 7.35399 -79.39669 27019 ft 397 kts 349°
2026-05-07 03:34 7.38085 -79.40282 26610 ft 395 kts 349°
2026-05-07 03:34 7.40718 -79.40887 26208 ft 392 kts 349°
2026-05-07 03:34 7.43371 -79.41490 25793 ft 389 kts 350°
2026-05-07 03:35 7.46012 -79.42082 25381 ft 388 kts 350°
2026-05-07 03:35 7.48637 -79.42664 24968 ft 386 kts 350°
2026-05-07 03:35 7.51259 -79.43241 24555 ft 384 kts 351°
2026-05-07 03:35 7.53869 -79.43812 24147 ft 383 kts 351°
2026-05-07 03:36 7.56470 -79.44381 23740 ft 382 kts 351°
2026-05-07 03:36 7.59066 -79.44949 23292 ft 380 kts 351°
2026-05-07 03:36 7.61652 -79.45514 22854 ft 378 kts 351°
2026-05-07 03:36 7.64210 -79.46073 22439 ft 375 kts 351°
2026-05-07 03:37 7.65895 -79.46441 22172 ft 373 kts 351°
2026-05-07 03:37 7.69242 -79.47173 21644 ft 369 kts 351°
2026-05-07 03:37 7.71754 -79.47723 21255 ft 367 kts 351°
2026-05-07 03:37 7.74235 -79.48265 20870 ft 364 kts 351°
2026-05-07 03:38 7.75877 -79.48625 20613 ft 363 kts 351°
2026-05-07 03:38 7.78368 -79.49169 20229 ft 360 kts 351°
2026-05-07 03:38 7.80783 -79.49698 19850 ft 359 kts 351°
2026-05-07 03:38 7.83225 -79.50232 19459 ft 357 kts 351°
2026-05-07 03:39 7.85650 -79.50762 19071 ft 356 kts 351°
2026-05-07 03:39 7.88077 -79.51293 18691 ft 355 kts 351°
2026-05-07 03:39 7.90486 -79.51820 18307 ft 354 kts 351°
2026-05-07 03:39 7.92885 -79.52345 17887 ft 353 kts 351°
2026-05-07 03:40 7.95277 -79.52869 17493 ft 350 kts 351°
2026-05-07 03:40 7.97643 -79.53388 17167 ft 346 kts 351°
2026-05-07 03:40 7.99986 -79.53901 16803 ft 343 kts 351°
2026-05-07 03:40 8.02308 -79.54409 16441 ft 341 kts 351°
2026-05-07 03:41 8.04627 -79.54917 16077 ft 339 kts 351°
2026-05-07 03:41 8.06914 -79.55418 15864 ft 332 kts 351°
2026-05-07 03:41 8.09135 -79.55789 15600 ft 325 kts
2026-05-07 03:41 8.11378 -79.55814 15271 ft 321 kts
2026-05-07 03:42 8.13607 -79.55755 14935 ft 320 kts
2026-05-07 03:42 8.15834 -79.55685 14583 ft 319 kts
2026-05-07 03:42 8.18051 -79.55622 14230 ft 318 kts
2026-05-07 03:42 8.20267 -79.55569 13877 ft 319 kts
2026-05-07 03:43 8.22482 -79.55525 13499 ft 318 kts
2026-05-07 03:43 8.24692 -79.55486 13143 ft 317 kts
2026-05-07 03:43 8.26888 -79.55452 12794 ft 315 kts
2026-05-07 03:43 8.29076 -79.55420 12442 ft 313 kts
2026-05-07 03:44 8.31252 -79.55389 12101 ft 312 kts
2026-05-07 03:44 8.33419 -79.55359 11757 ft 310 kts
2026-05-07 03:44 8.35576 -79.55329 11421 ft 309 kts
2026-05-07 03:44 8.37719 -79.55300 11083 ft 307 kts
2026-05-07 03:45 8.39862 -79.55270 10726 ft 307 kts
2026-05-07 03:45 8.41966 -79.55242 10386 ft 306 kts
2026-05-07 03:45 8.44080 -79.55213 10199 ft 299 kts
2026-05-07 03:45 8.46141 -79.55186 10030 ft 292 kts
2026-05-07 03:46 8.48177 -79.55158 9718 ft 291 kts
2026-05-07 03:46 8.50202 -79.55130 9404 ft 290 kts
2026-05-07 03:46 8.52222 -79.55102 9088 ft 288 kts
2026-05-07 03:46 8.54221 -79.55075 8777 ft 287 kts
2026-05-07 03:47 8.56182 -79.55048 8485 ft 285 kts
2026-05-07 03:47 8.58136 -79.55022 8354 ft 276 kts
2026-05-07 03:47 8.60029 -79.54962 8155 ft 270 kts
2026-05-07 03:47 8.61874 -79.54606 7885 ft 268 kts 15°
2026-05-07 03:48 8.63679 -79.54140 7609 ft 267 kts 16°
2026-05-07 03:48 8.65473 -79.53667 7328 ft 266 kts 15°
2026-05-07 03:48 8.67260 -79.53206 7053 ft 265 kts 15°
2026-05-07 03:48 8.69046 -79.52755 6779 ft 264 kts 15°
2026-05-07 03:49 8.70831 -79.52312 6501 ft 263 kts 14°
2026-05-07 03:49 8.72548 -79.51891 6223 ft 263 kts 14°
2026-05-07 03:49 8.74335 -79.51456 5926 ft 263 kts 14°
2026-05-07 03:49 8.76108 -79.51026 5638 ft 262 kts 14°
2026-05-07 03:50 8.77849 -79.50604 5368 ft 260 kts 13°
2026-05-07 03:50 8.79641 -79.50481 5080 ft 260 kts 353°
2026-05-07 03:50 8.81422 -79.50748 4871 ft 256 kts 352°
2026-05-07 03:50 8.83156 -79.51002 4747 ft 248 kts 353°
2026-05-07 03:51 8.84842 -79.51238 4659 ft 241 kts 353°
2026-05-07 03:51 8.86497 -79.51466 4537 ft 240 kts 353°
2026-05-07 03:51 8.88172 -79.51634 4363 ft 244 kts
2026-05-07 03:51 8.89746 -79.51093 4145 ft 236 kts 32°
2026-05-07 03:52 8.91016 -79.50093 3901 ft 226 kts 40°
2026-05-07 03:52 8.92167 -79.49061 3642 ft 217 kts 41°
2026-05-07 03:52 8.93279 -79.48066 3395 ft 209 kts 41°
2026-05-07 03:52 8.94357 -79.47113 3166 ft 202 kts 40°
2026-05-07 03:53 8.95403 -79.46195 2936 ft 196 kts 40°
2026-05-07 03:53 8.96417 -79.45306 2709 ft 190 kts 40°
2026-05-07 03:53 8.97496 -79.44557 2458 ft 187 kts 30°
2026-05-07 03:53 8.98622 -79.43897 2205 ft 187 kts 29°
2026-05-07 03:54 8.99725 -79.43249 1950 ft 178 kts 30°
2026-05-07 03:54 9.00746 -79.42644 1746 ft 161 kts 30°
2026-05-07 03:54 9.01669 -79.42095 1487 ft 153 kts 30°
2026-05-07 03:54 9.02585 -79.41549 1293 ft 152 kts 30°
2026-05-07 03:55 9.03492 -79.41007 1094 ft 151 kts 30°
2026-05-07 03:55 9.04396 -79.40465 880 ft 150 kts 30°
2026-05-07 03:55 9.05289 -79.39927 641 ft 149 kts 30°
2026-05-07 03:55 9.06177 -79.39391 388 ft 148 kts 30°
2026-05-07 03:56 9.07063 -79.38863 162 ft 148 kts 30°
2026-05-07 03:56 9.07942 -79.38335 28 ft 141 kts 30°
2026-05-07 03:56 9.08676 -79.37892 26 ft 102 kts 31°
2026-05-07 03:56 9.09040 -79.37674 25 ft 43 kts 31°
2026-05-07 03:57 9.09262 -79.37540 23 ft 28 kts 31°
2026-05-07 03:57 9.09330 -79.37444 20 ft 15 kts 112°
2026-05-07 03:57 9.09270 -79.37350 10 ft 17 kts 137°
2026-05-07 03:57 9.09160 -79.37362 9 ft 16 kts 198°
2026-05-07 03:58 9.09053 -79.37397 9 ft 16 kts 198°
2026-05-07 03:58 9.08950 -79.37429 8 ft 15 kts 197°
2026-05-07 03:58 9.08855 -79.37470 9 ft 15 kts 211°
2026-05-07 03:58 9.08758 -79.37528 9 ft 17 kts 210°
2026-05-07 03:59 9.08655 -79.37590 9 ft 17 kts 211°
2026-05-07 03:59 9.08555 -79.37650 10 ft 16 kts 210°
2026-05-07 03:59 9.08462 -79.37723 9 ft 19 kts 226°
2026-05-07 03:59 9.08367 -79.37822 10 ft 19 kts 225°
2026-05-07 04:00 9.08275 -79.37918 12 ft 19 kts 226°
2026-05-07 04:00 9.08184 -79.38009 13 ft 18 kts 219°
2026-05-07 04:00 9.08076 -79.38080 13 ft 19 kts 211°
2026-05-07 04:00 9.07964 -79.38147 13 ft 18 kts 210°
2026-05-07 04:01 9.07855 -79.38212 33 ft 18 kts 210°
2026-05-07 04:01 9.07751 -79.38275 33 ft 17 kts 211°
2026-05-07 04:01 9.07649 -79.38334 34 ft 17 kts 211°
2026-05-07 04:01 9.07550 -79.38396 34 ft 17 kts 211°
2026-05-07 04:02 9.07455 -79.38455 34 ft 16 kts 212°
2026-05-07 04:02 9.07360 -79.38508 33 ft 16 kts 194°
2026-05-07 04:02 9.07278 -79.38447 31 ft 16 kts 122°
2026-05-07 04:02 9.07220 -79.38352 30 ft 16 kts 120°
2026-05-07 04:03 9.07167 -79.38258 29 ft 15 kts 117°
2026-05-07 04:03 9.07119 -79.38168 29 ft 14 kts 122°
2026-05-07 04:03 9.07033 -79.38157 29 ft 14 kts 207°
2026-05-07 04:03 9.06939 -79.38208 29 ft 17 kts 208°
2026-05-07 04:04 9.06837 -79.38262 29 ft 16 kts 208°
2026-05-07 04:04 9.06738 -79.38315 29 ft 16 kts 208°
2026-05-07 04:04 9.06639 -79.38368 29 ft 18 kts 207°
2026-05-07 04:04 9.06523 -79.38433 29 ft 20 kts 210°
2026-05-07 04:05 9.06400 -79.38504 29 ft 20 kts 210°
2026-05-07 04:05 9.06281 -79.38572 29 ft 19 kts 210°
2026-05-07 04:05 9.06166 -79.38639 29 ft 19 kts 210°
2026-05-07 04:05 9.06055 -79.38703 29 ft 18 kts 208°
2026-05-07 04:06 9.05988 -79.38783 29 ft 14 kts 285°
2026-05-07 04:06 9.06053 -79.38786 29 ft 12 kts 30°
2026-05-07 04:06 9.06143 -79.38734 29 ft 16 kts 30°
2026-05-07 04:06 9.06236 -79.38681 29 ft 15 kts 29°
2026-05-07 04:07 9.06325 -79.38677 29 ft 14 kts 309°
2026-05-07 04:07 9.06368 -79.38744 29 ft 3 kts 297°
2026-05-07 04:07 9.06394 -79.38762 29 ft 8 kts 339°
2026-05-07 04:07 9.06442 -79.38786 29 ft 6 kts 336°
2026-05-07 04:08 9.06477 -79.38775 29 ft 4 kts 61°
2026-05-07 04:08 9.06481 -79.38761 29 ft 1 kts 72°
2026-05-07 04:08 9.06482 -79.38759 29 ft 0 kts 72°